Location: Carnoy
(49.9849°N, 2.7558°E)
Time: 21:57:20
(UTC+00:00)

Ariane Rocket - Pass Details

Date: 24 January 2020
Orbit: 761 x 770 km, 98.7° (Epoch: 27 February)

Event Time Altitude Azimuth Distance (km) Brightness Sun altitude
Rises 17:11:51 0° 111° (ESE) 3,227 5.8 -7.1°
Reaches altitude 10° 17:14:57 10° 91° (E) 2,307 4.9 -7.5°
Maximum altitude 17:18:00 16° 54° (NE) 1,913 4.5 -8.0°
Drops below altitude 10° 17:21:03 10° 17° (NNE) 2,319 5.2 -8.4°
Sets 17:24:10 0° 357° (N) 3,252 6.1 -8.9°
